Ketchikan, AK

10:30 PM AKDT on September 22, 2018 (GMT -0800)
Ketchikan International

Weather History for PAKT - September, 2017

Change the Weather History Date:

Sunday, September 17, 2017

  Actual Average Record
Temperature  
Mean Temperature 50 °F -  
Max Temperature 57 °F 59 °F 75 °F (1957)
Min Temperature 46 °F 46 °F 37 °F (1992)
Degree Days  
Heating Degree Days 14    
Moisture  
Dew Point 47 °F    
Average Humidity 88    
Maximum Humidity 97    
Minimum Humidity 75    
Precipitation  
Precipitation 0.98 in - - ()
Sea Level Pressure  
Sea Level Pressure 29.53 in    
Wind  
Wind Speed 12 mph (SSE)    
Max Wind Speed 23 mph    
Max Gust Speed 32 mph    
Visibility 8 miles    
Events Rain    
Averages and records for this station are not official NWS values.
T = Trace of Precipitation, MM = Missing Value Source: NWS Daily Summary

Daily Weather History Graph

Daily Weather History Graph

Search for Another Location

Airport or City:

Astronomy

Sep. 17, 2017 Rise Set
Actual Time 6:23 AM AKDT 6:57 PM AKDT
Civil Twilight 5:46 AM AKDT 7:34 PM AKDT
Nautical Twilight 5:02 AM AKDT 8:18 PM AKDT
Astronomical Twilight 4:14 AM AKDT 9:05 PM AKDT
Moon 3:00 AM AKDT (9/17) 6:14 PM AKDT (9/17)
Length of Visible Light 13h 47m
Length of Day
12h 33m
Waning Crescent, 7% of the Moon is Illuminated
Sep 17
Waning Crescent
Sep 19
New
Sep 27
First Quarter
Oct 5
Full
Oct 12
Last Quarter

Hourly Weather History & Observations

Time (AKDT) Temp. Dew Point Humidity Pressure Visibility Wind Dir Wind Speed Gust Speed Precip Events Conditions
12:27 AM 51.1 °F 48.9 °F 92% 29.62 in 5.0 mi SE 15.0 mph - 0.05 in Rain Rain
12:53 AM 51.1 °F 48.9 °F 92% 29.62 in 6.0 mi SE 16.1 mph 21.9 mph 0.09 in Rain Rain
1:29 AM 51.1 °F 48.0 °F 89% 29.59 in 5.0 mi SE 16.1 mph - 0.09 in Rain Rain
1:53 AM 51.1 °F 46.9 °F 86% 29.58 in 4.0 mi SE 16.1 mph 23.0 mph 0.14 in Rain Rain
2:53 AM 51.1 °F 46.0 °F 83% 29.55 in 6.0 mi SSE 17.3 mph - 0.12 in Rain Rain
3:53 AM 50.0 °F 46.9 °F 89% 29.54 in 4.0 mi SE 16.1 mph 26.5 mph 0.15 in Rain Rain
4:53 AM 48.9 °F 45.0 °F 86% 29.50 in 3.0 mi SE 23.0 mph 32.2 mph 0.21 in Rain Rain
5:53 AM 50.0 °F 43.0 °F 77% 29.47 in 6.0 mi SSE 15.0 mph 28.8 mph 0.15 in Rain Light Rain
6:53 AM 50.0 °F 45.0 °F 83% 29.44 in 10.0 mi South 13.8 mph 24.2 mph 0.08 in Rain Light Rain
7:53 AM 50.0 °F 45.0 °F 83% 29.43 in 8.0 mi SSE 11.5 mph 18.4 mph 0.01 in Rain Light Rain
8:53 AM 51.1 °F 46.0 °F 83% 29.43 in 10.0 mi South 11.5 mph 21.9 mph 0.03 in Rain Light Rain
9:53 AM 50.0 °F 48.2 °F 94% 29.43 in 6.0 mi South 8.1 mph - N/A Rain Light Rain
10:53 AM 51.8 °F 48.2 °F 88% 29.44 in 4.0 mi South 6.9 mph - N/A Rain Light Rain
11:53 AM 53.6 °F 50.0 °F 88% 29.45 in 10.0 mi SE 12.7 mph 19.6 mph N/A   Overcast
12:53 PM 53.6 °F 48.2 °F 82% 29.47 in 10.0 mi SE 11.5 mph - N/A   Overcast
1:53 PM 55.4 °F 48.2 °F 77% 29.48 in 10.0 mi SSE 10.4 mph - N/A   Mostly Cloudy
2:53 PM 54.0 °F 46.0 °F 75% 29.51 in 10.0 mi Variable 6.9 mph - N/A   Overcast
3:53 PM 54.0 °F 46.0 °F 75% 29.53 in 10.0 mi Variable 3.5 mph - 0.00 in   Overcast
4:53 PM 51.8 °F 48.2 °F 88% 29.54 in 8.0 mi SSE 6.9 mph - N/A Rain Light Rain
5:53 PM 51.8 °F 48.2 °F 88% 29.55 in 10.0 mi SE 9.2 mph - N/A   Mostly Cloudy
6:53 PM 50.0 °F 46.4 °F 87% 29.55 in 10.0 mi South 4.6 mph - N/A   Mostly Cloudy
7:53 PM 48.2 °F 46.4 °F 93% 29.57 in 10.0 mi South 5.8 mph - N/A   Mostly Cloudy
8:53 PM 48.2 °F 46.4 °F 93% 29.58 in 10.0 mi South 4.6 mph - N/A   Overcast
9:53 PM 48.0 °F 46.9 °F 96% 29.59 in 10.0 mi SSE 4.6 mph - N/A   Overcast
10:53 PM 48.0 °F 46.0 °F 93% 29.60 in 10.0 mi SSE 4.6 mph - N/A   Overcast
11:07 PM 46.9 °F 46.0 °F 97% 29.59 in 10.0 mi SE 4.6 mph - N/A   Overcast
11:20 PM 46.9 °F 46.0 °F 97% 29.60 in 10.0 mi SE 3.5 mph - N/A   Overcast
11:53 PM 46.9 °F 46.0 °F 97% 29.61 in 10.0 mi SSW 3.5 mph - N/A   Overcast